Weather History for Las Vegas, NM

Change the Weather History Date:

Thursday, August 15, 2013

  Actual Average Record
Temperature  
Mean Temperature 65 °F -  
Max Temperature 82 °F 80 °F 91 °F (2002)
Min Temperature 48 °F 52 °F 46 °F (2004)
Growing Degree Days 15 (Base 50)    
Moisture  
Dew Point 45 °F    
Average Humidity 50    
Maximum Humidity 86    
Minimum Humidity 22    
Precipitation  
Precipitation 0.00 in - - ()
Sea Level Pressure  
Sea Level Pressure 30.04 in    
Wind  
Wind Speed 7 mph (SSE)    
Max Wind Speed 14 mph    
Max Gust Speed -    
Visibility 10 miles    
Events Thunderstorm    
Averages and records for this station are not official NWS values.
T = Trace of Precipitation, MM = Missing Value Source: NWS Daily Summary

Daily Weather History Graph

Daily Weather History Graph

Search for Another Location

Airport:

Trip Planner

Search our weather history database for the weather conditions in past years. The results will help you decide how hot, cold, wet, or windy it might be!

Date:

Astronomy

Aug. 15, 2013 Rise Set
Actual Time 6:19 AM MDT 7:49 PM MDT
Civil Twilight 5:52 AM MDT 8:16 PM MDT
Nautical Twilight 5:20 AM MDT 8:48 PM MDT
Astronomical Twilight 4:46 AM MDT 9:22 PM MDT
Moon 3:05 PM MDT (8/15) 12:34 AM MDT (8/15)
Length of Visible Light 14h 23m
Length of Day
13h 29m
Waxing Gibbous, 65% of the Moon is Illuminated
Aug 15
Waxing Gibbous
Aug 20
Full
Aug 28
Last Quarter
Sep 5
New
Sep 12
First Quarter

Hourly Weather History & Observations

Time (MDT) Temp. Dew Point Humidity Pressure Visibility Wind Dir Wind Speed Gust Speed Precip Events Conditions
12:53 AM 54.0 °F 46.9 °F 77% 30.08 in 10.0 mi North 3.5 mph - N/A   Clear
1:53 AM 53.1 °F 46.0 °F 77% 30.09 in 10.0 mi ENE 8.1 mph - N/A   Partly Cloudy
2:53 AM 53.1 °F 46.9 °F 80% 30.07 in 10.0 mi North 8.1 mph - N/A   Clear
3:53 AM 51.1 °F 46.0 °F 83% 30.07 in 10.0 mi NNE 5.8 mph - N/A   Clear
4:53 AM 48.9 °F 45.0 °F 86% 30.09 in 10.0 mi North 5.8 mph - N/A   Clear
5:53 AM 52.0 °F 46.0 °F 80% 30.06 in 10.0 mi North 6.9 mph - N/A   Clear
6:53 AM 50.0 °F 46.0 °F 86% 30.09 in 10.0 mi East 4.6 mph - N/A   Clear
7:53 AM 57.9 °F 48.9 °F 72% 30.08 in 10.0 mi WSW 4.6 mph - N/A   Clear
8:53 AM 61.0 °F 50.0 °F 67% 30.07 in 10.0 mi South 5.8 mph - N/A   Clear
9:53 AM 68.0 °F 52.0 °F 56% 30.04 in 10.0 mi SSW 8.1 mph - N/A   Clear
10:53 AM 73.0 °F 53.1 °F 49% 30.02 in 10.0 mi South 9.2 mph - N/A   Clear
11:53 AM 79.0 °F 48.9 °F 35% 30.00 in 10.0 mi SSE 10.4 mph - N/A   Clear
12:53 PM 80.1 °F 44.1 °F 28% 29.99 in 10.0 mi West 9.2 mph - N/A   Clear
1:32 PM 80.6 °F 42.8 °F 26% 30.29 in 10.0 mi WSW 13.8 mph - 0.00 in Thunderstorm Scattered Clouds
1:53 PM 80.1 °F 41.0 °F 25% 29.98 in 10.0 mi Variable 6.9 mph - 0.00 in Thunderstorm Clear
2:02 PM 80.6 °F 41.0 °F 24% 30.28 in 10.0 mi Variable 5.8 mph - N/A   Clear
2:53 PM 81.0 °F 41.0 °F 24% 29.95 in 10.0 mi SE 11.5 mph - N/A   Mostly Cloudy
3:53 PM 81.0 °F 41.0 °F 24% 29.96 in 10.0 mi Variable 6.9 mph - N/A   Partly Cloudy
4:53 PM 82.0 °F 39.0 °F 22% 29.96 in 10.0 mi ESE 8.1 mph - N/A   Clear
5:53 PM 80.1 °F 43.0 °F 27% 29.95 in 10.0 mi SSE 13.8 mph - N/A   Clear
6:53 PM 77.0 °F 41.0 °F 28% 29.97 in 10.0 mi SSE 13.8 mph - N/A   Clear
7:53 PM 71.1 °F 41.0 °F 34% 29.99 in 10.0 mi South 10.4 mph - N/A   Clear
8:53 PM 64.9 °F 41.0 °F 42% 30.01 in 10.0 mi SSE 10.4 mph - N/A   Clear
9:53 PM 64.0 °F 42.1 °F 45% 30.01 in 10.0 mi SSW 10.4 mph - N/A   Clear
11:53 PM 66.0 °F 46.9 °F 50% 29.97 in 10.0 mi SSE 8.1 mph - N/A   Mostly Cloudy